Time,TemperatureF,DewpointF,PressureIn,WindDirection,WindDirectionDegrees,WindSpeedMPH,WindSpeedGustMPH,Humidity,HourlyPrecipIn,Conditions,Clouds,dailyrainin,SoftwareType,DateUTC
2013-03-02 00:01:00,25.0,18.0,30.32,North,5,1.0,4.0,74,0.00,,,0.02,,2013-03-02 06:01:00,
2013-03-02 00:11:00,25.0,18.0,30.32,North,5,1.0,4.0,74,0.00,,,0.02,,2013-03-02 06:11:00,
2013-03-02 00:21:00,25.0,18.0,30.31,North,7,1.0,3.0,73,0.00,,,0.02,,2013-03-02 06:21:00,
2013-03-02 00:31:00,25.0,17.0,30.32,North,0,1.0,3.0,70,0.00,,,0.02,,2013-03-02 06:31:00,
2013-03-02 00:41:00,25.0,17.0,30.32,North,0,1.0,3.0,70,0.00,,,0.02,,2013-03-02 06:41:00,
2013-03-02 00:52:00,25.0,16.0,30.31,North,4,9.0,9.0,67,0.00,,,0.02,,2013-03-02 06:52:00,
2013-03-02 01:01:00,25.0,15.0,30.30,NNW,336,3.0,9.0,66,0.00,,,0.02,,2013-03-02 07:01:00,
2013-03-02 01:11:00,25.0,16.0,30.29,North,0,2.0,5.0,67,0.00,,,0.02,,2013-03-02 07:11:00,
2013-03-02 01:21:00,25.0,16.0,30.29,North,0,2.0,5.0,67,0.00,,,0.02,,2013-03-02 07:21:00,
2013-03-02 01:32:00,25.0,15.0,30.30,North,358,3.0,7.0,66,0.00,,,0.02,,2013-03-02 07:32:00,
2013-03-02 01:42:00,25.0,15.0,30.30,North,358,3.0,7.0,66,0.00,,,0.02,,2013-03-02 07:42:00,
2013-03-02 01:52:00,25.0,16.0,30.31,North,1,2.0,3.0,67,0.00,,,0.02,,2013-03-02 07:52:00,
2013-03-02 02:01:00,25.0,16.0,30.29,North,7,8.0,9.0,67,0.00,,,0.02,,2013-03-02 08:01:00,
2013-03-02 02:11:00,25.0,16.0,30.29,North,7,8.0,9.0,67,0.00,,,0.02,,2013-03-02 08:11:00,
2013-03-02 02:21:00,24.0,14.0,30.31,North,352,3.0,7.0,66,0.00,,,0.02,,2013-03-02 08:21:00,
2013-03-02 02:32:00,24.0,14.0,30.30,North,8,8.0,12.0,66,0.00,,,0.02,,2013-03-02 08:32:00,
2013-03-02 02:42:00,24.0,14.0,30.30,North,8,8.0,12.0,66,0.00,,,0.02,,2013-03-02 08:42:00,
2013-03-02 02:52:00,24.0,14.0,30.30,NNW,334,2.0,6.0,66,0.00,,,0.02,,2013-03-02 08:52:00,
2013-03-02 03:01:00,24.0,14.0,30.29,North,4,2.0,6.0,66,0.00,,,0.02,,2013-03-02 09:01:00,
2013-03-02 03:11:00,24.0,14.0,30.29,North,0,0.0,1.0,66,0.00,,,0.02,,2013-03-02 09:11:00,
2013-03-02 03:21:00,24.0,14.0,30.29,North,0,0.0,1.0,66,0.00,,,0.02,,2013-03-02 09:21:00,
2013-03-02 03:31:00,24.0,14.0,30.29,North,0,0.0,1.0,66,0.00,,,0.02,,2013-03-02 09:31:00,
2013-03-02 03:42:00,24.0,14.0,30.29,North,0,0.0,1.0,66,0.00,,,0.02,,2013-03-02 09:42:00,
2013-03-02 03:52:00,23.0,13.0,30.30,North,357,1.0,10.0,66,0.00,,,0.02,,2013-03-02 09:52:00,
2013-03-02 04:01:00,23.0,13.0,30.29,NNE,13,1.0,3.0,66,0.00,,,0.02,,2013-03-02 10:01:00,
2013-03-02 04:15:00,23.0,13.0,30.29,NNE,13,1.0,3.0,66,0.00,,,0.02,,2013-03-02 10:15:00,
2013-03-02 04:21:00,23.0,13.0,30.29,NNE,13,1.0,3.0,66,0.00,,,0.02,,2013-03-02 10:21:00,
2013-03-02 04:31:00,23.0,13.0,30.30,North,3,0.0,5.0,64,0.00,,,0.02,,2013-03-02 10:31:00,
2013-03-02 04:42:00,23.0,13.0,30.30,North,3,0.0,5.0,64,0.00,,,0.02,,2013-03-02 10:42:00,
2013-03-02 04:52:00,23.0,13.0,30.29,NNW,340,2.0,3.0,66,0.00,,,0.02,,2013-03-02 10:52:00,
2013-03-02 05:01:00,23.0,13.0,30.30,North,352,3.0,3.0,66,0.00,,,0.02,,2013-03-02 11:01:00,
2013-03-02 05:11:00,23.0,13.0,30.30,North,352,3.0,3.0,66,0.00,,,0.02,,2013-03-02 11:11:00,
2013-03-02 05:21:00,23.0,13.0,30.30,North,352,3.0,3.0,66,0.00,,,0.02,,2013-03-02 11:21:00,
2013-03-02 05:32:00,23.0,13.0,30.31,North,4,3.0,5.0,66,0.00,,,0.02,,2013-03-02 11:32:00,
2013-03-02 05:41:00,23.0,13.0,30.31,North,4,3.0,5.0,66,0.00,,,0.02,,2013-03-02 11:41:00,
2013-03-02 05:52:00,22.0,12.0,30.31,NW,315,1.0,6.0,66,0.00,,,0.02,,2013-03-02 11:52:00,
2013-03-02 06:02:00,22.0,12.0,30.31,NNW,348,1.0,4.0,66,0.00,,,0.02,,2013-03-02 12:02:00,
2013-03-02 06:11:00,22.0,12.0,30.31,NNW,348,1.0,4.0,66,0.00,,,0.02,,2013-03-02 12:11:00,
2013-03-02 06:21:00,22.0,12.0,30.32,NNW,339,2.0,3.0,66,0.00,,,0.02,,2013-03-02 12:21:00,
2013-03-02 06:32:00,22.0,12.0,30.32,North,0,2.0,5.0,65,0.00,,,0.02,,2013-03-02 12:32:00,
2013-03-02 06:43:00,22.0,12.0,30.32,North,0,2.0,5.0,65,0.00,,,0.02,,2013-03-02 12:43:00,
2013-03-02 06:53:00,22.0,12.0,30.31,NW,319,1.0,3.0,66,0.00,,,0.02,,2013-03-02 12:53:00,
2013-03-02 07:01:00,22.0,12.0,30.32,NNW,335,0.0,4.0,66,0.00,,,0.02,,2013-03-02 13:01:00,
2013-03-02 07:11:00,22.0,12.0,30.32,NNW,335,0.0,4.0,66,0.00,,,0.02,,2013-03-02 13:11:00,
2013-03-02 07:21:00,22.0,12.0,30.32,NNW,335,0.0,4.0,66,0.00,,,0.02,,2013-03-02 13:21:00,
2013-03-02 07:31:00,22.0,12.0,30.33,North,351,0.0,2.0,66,0.00,,,0.02,,2013-03-02 13:31:00,
2013-03-02 07:41:00,22.0,12.0,30.33,North,351,0.0,2.0,66,0.00,,,0.02,,2013-03-02 13:41:00,
2013-03-02 07:52:00,22.0,13.0,30.32,NNW,328,4.0,5.0,67,0.00,,,0.02,,2013-03-02 13:52:00,
2013-03-02 08:01:00,23.0,13.0,30.33,NNW,336,2.0,7.0,66,0.00,,,0.02,,2013-03-02 14:01:00,
2013-03-02 08:11:00,23.0,13.0,30.33,NNW,336,2.0,7.0,66,0.00,,,0.02,,2013-03-02 14:11:00,
2013-03-02 08:21:00,23.0,13.0,30.34,NNW,329,2.0,9.0,66,0.00,,,0.02,,2013-03-02 14:21:00,
2013-03-02 08:32:00,23.0,13.0,30.33,NNW,332,5.0,12.0,65,0.00,,,0.02,,2013-03-02 14:32:00,
2013-03-02 08:42:00,23.0,13.0,30.33,NNW,332,5.0,12.0,65,0.00,,,0.02,,2013-03-02 14:42:00,
2013-03-02 08:52:00,24.0,14.0,30.34,NNW,346,2.0,7.0,64,0.00,,,0.02,,2013-03-02 14:52:00,
2013-03-02 09:02:00,24.0,14.0,30.34,NNW,346,2.0,7.0,64,0.00,,,0.02,,2013-03-02 15:02:00,
2013-03-02 09:11:00,24.0,14.0,30.34,NNW,346,2.0,7.0,64,0.00,,,0.02,,2013-03-02 15:11:00,
2013-03-02 09:21:00,24.0,13.0,30.33,NNW,332,2.0,7.0,62,0.00,,,0.02,,2013-03-02 15:21:00,
2013-03-02 09:31:00,25.0,14.0,30.33,NNW,340,2.0,2.0,62,0.00,,,0.02,,2013-03-02 15:31:00,
2013-03-02 09:41:00,25.0,14.0,30.33,NNW,340,2.0,2.0,62,0.00,,,0.02,,2013-03-02 15:41:00,
2013-03-02 09:52:00,28.0,14.0,30.34,North,7,6.0,8.0,56,0.00,,,0.02,,2013-03-02 15:52:00,
2013-03-02 10:01:00,28.0,14.0,30.34,North,7,6.0,8.0,56,0.00,,,0.02,,2013-03-02 16:01:00,
2013-03-02 10:11:00,28.0,14.0,30.34,North,7,6.0,8.0,56,0.00,,,0.02,,2013-03-02 16:11:00,
2013-03-02 10:21:00,32.0,16.0,30.33,North,356,1.0,2.0,51,0.00,,,0.02,,2013-03-02 16:21:00,
2013-03-02 10:31:00,32.0,15.0,30.34,North,358,3.0,6.0,50,0.00,,,0.02,,2013-03-02 16:31:00,
2013-03-02 10:41:00,32.0,15.0,30.34,North,358,3.0,6.0,50,0.00,,,0.02,,2013-03-02 16:41:00,
2013-03-02 10:52:00,32.0,15.0,30.33,NNW,338,1.0,4.0,50,0.00,,,0.01,,2013-03-02 16:52:00,
2013-03-02 11:01:00,33.0,16.0,30.34,North,0,4.0,5.0,49,0.00,,,0.01,,2013-03-02 17:01:00,
2013-03-02 11:11:00,33.0,16.0,30.34,North,0,4.0,5.0,49,0.00,,,0.01,,2013-03-02 17:11:00,
2013-03-02 11:21:00,33.0,16.0,30.34,North,0,4.0,5.0,49,0.00,,,0.01,,2013-03-02 17:21:00,
2013-03-02 11:32:00,31.0,14.0,30.34,North,0,1.0,3.0,49,0.00,,,0.01,,2013-03-02 17:32:00,
2013-03-02 11:42:00,31.0,14.0,30.34,North,0,1.0,3.0,49,0.00,,,0.01,,2013-03-02 17:42:00,
2013-03-02 11:52:00,32.0,15.0,30.32,North,3,0.0,1.0,49,0.00,,,0.01,,2013-03-02 17:52:00,
2013-03-02 12:01:00,32.0,15.0,30.32,North,3,0.0,1.0,49,0.00,,,0.01,,2013-03-02 18:01:00,
2013-03-02 12:11:00,32.0,15.0,30.32,North,3,0.0,1.0,49,0.00,,,0.01,,2013-03-02 18:11:00,
2013-03-02 12:22:00,32.0,15.0,30.33,NNE,13,1.0,3.0,48,0.00,,,0.01,,2013-03-02 18:22:00,
2013-03-02 12:32:00,34.0,16.0,30.31,North,6,1.0,1.0,47,0.00,,,0.01,,2013-03-02 18:32:00,
2013-03-02 12:42:00,34.0,16.0,30.31,North,6,1.0,1.0,47,0.00,,,0.01,,2013-03-02 18:42:00,
2013-03-02 12:52:00,34.0,16.0,30.31,WSW,257,1.0,2.0,47,0.00,,,0.00,,2013-03-02 18:52:00,
2013-03-02 13:01:00,34.0,16.0,30.32,SSW,199,0.0,5.0,48,0.00,,,0.00,,2013-03-02 19:01:00,
2013-03-02 13:11:00,34.0,16.0,30.32,SSW,199,0.0,5.0,48,0.00,,,0.00,,2013-03-02 19:11:00,
2013-03-02 13:21:00,33.0,16.0,30.29,West,260,0.0,1.0,49,0.00,,,0.00,,2013-03-02 19:21:00,
2013-03-02 13:31:00,33.0,16.0,30.29,West,260,0.0,1.0,49,0.00,,,0.00,,2013-03-02 19:31:00,
2013-03-02 13:42:00,33.0,16.0,30.29,West,260,0.0,1.0,49,0.00,,,0.00,,2013-03-02 19:42:00,
2013-03-02 13:52:00,32.0,15.0,30.28,West,259,1.0,1.0,50,0.00,,,0.00,,2013-03-02 19:52:00,
2013-03-02 14:01:00,32.0,15.0,30.28,West,259,1.0,1.0,50,0.00,,,0.00,,2013-03-02 20:01:00,
2013-03-02 14:11:00,32.0,15.0,30.28,West,259,1.0,1.0,50,0.00,,,0.00,,2013-03-02 20:11:00,
2013-03-02 14:21:00,32.0,15.0,30.28,SW,234,2.0,3.0,50,0.00,,,0.00,,2013-03-02 20:21:00,
2013-03-02 14:32:00,32.0,15.0,30.26,SW,220,0.0,1.0,49,0.00,,,0.00,,2013-03-02 20:32:00,
2013-03-02 14:42:00,32.0,15.0,30.26,SW,220,0.0,1.0,49,0.00,,,0.00,,2013-03-02 20:42:00,
2013-03-02 14:52:00,32.0,15.0,30.28,WNW,285,0.0,3.0,50,0.00,,,0.00,,2013-03-02 20:52:00,
2013-03-02 15:02:00,32.0,15.0,30.28,WNW,285,0.0,3.0,50,0.00,,,0.00,,2013-03-02 21:02:00,
2013-03-02 15:11:00,32.0,15.0,30.28,WNW,285,0.0,3.0,50,0.00,,,0.00,,2013-03-02 21:11:00,
2013-03-02 15:22:00,31.0,15.0,30.27,NW,319,3.0,4.0,51,0.00,,,0.00,,2013-03-02 21:22:00,
2013-03-02 15:32:00,31.0,15.0,30.27,NW,319,3.0,4.0,51,0.00,,,0.00,,2013-03-02 21:32:00,
2013-03-02 15:42:00,31.0,15.0,30.27,NW,319,3.0,4.0,51,0.00,,,0.00,,2013-03-02 21:42:00,
2013-03-02 15:52:00,31.0,15.0,30.26,NW,315,1.0,3.0,52,0.00,,,0.00,,2013-03-02 21:52:00,
2013-03-02 16:01:00,30.0,15.0,30.24,West,263,1.0,1.0,52,0.00,,,0.00,,2013-03-02 22:01:00,
2013-03-02 16:11:00,30.0,15.0,30.24,West,263,1.0,1.0,52,0.00,,,0.00,,2013-03-02 22:11:00,
2013-03-02 16:21:00,30.0,15.0,30.24,West,263,1.0,1.0,52,0.00,,,0.00,,2013-03-02 22:21:00,
2013-03-02 16:32:00,30.0,15.0,30.25,West,272,0.0,1.0,53,0.00,,,0.00,,2013-03-02 22:32:00,
2013-03-02 16:42:00,30.0,15.0,30.25,West,272,0.0,1.0,53,0.00,,,0.00,,2013-03-02 22:42:00,
2013-03-02 16:52:00,30.0,15.0,30.25,West,272,1.0,2.0,54,0.00,,,0.00,,2013-03-02 22:52:00,
2013-03-02 17:01:00,30.0,15.0,30.25,West,272,1.0,2.0,54,0.00,,,0.00,,2013-03-02 23:01:00,
2013-03-02 17:11:00,29.0,15.0,30.24,West,276,0.0,1.0,55,0.00,,,0.00,,2013-03-02 23:11:00,
2013-03-02 17:21:00,29.0,15.0,30.24,West,276,0.0,1.0,55,0.00,,,0.00,,2013-03-02 23:21:00,
2013-03-02 17:32:00,29.0,15.0,30.24,West,276,0.0,0.0,55,0.00,,,0.00,,2013-03-02 23:32:00,
2013-03-02 17:42:00,29.0,15.0,30.24,West,276,0.0,0.0,55,0.00,,,0.00,,2013-03-02 23:42:00,
2013-03-02 17:52:00,29.0,16.0,30.25,West,276,0.0,0.0,57,0.00,,,0.00,,2013-03-02 23:52:00,
2013-03-02 18:02:00,29.0,16.0,30.25,West,276,0.0,0.0,57,0.00,,,0.00,,2013-03-03 00:02:00,
2013-03-02 18:11:00,29.0,16.0,30.25,West,276,0.0,0.0,57,0.00,,,0.00,,2013-03-03 00:11:00,
2013-03-02 18:22:00,28.0,16.0,30.25,West,276,0.0,0.0,59,0.00,,,0.00,,2013-03-03 00:22:00,
2013-03-02 18:32:00,28.0,16.0,30.24,West,276,0.0,0.0,60,0.00,,,0.00,,2013-03-03 00:32:00,
2013-03-02 18:42:00,28.0,16.0,30.24,West,276,0.0,0.0,60,0.00,,,0.00,,2013-03-03 00:42:00,
2013-03-02 18:52:00,28.0,16.0,30.24,West,276,0.0,0.0,60,0.00,,,0.00,,2013-03-03 00:52:00,
2013-03-02 19:01:00,28.0,17.0,30.22,West,276,0.0,0.0,63,0.00,,,0.00,,2013-03-03 01:01:00,
2013-03-02 19:11:00,28.0,17.0,30.22,West,276,0.0,0.0,63,0.00,,,0.00,,2013-03-03 01:11:00,
2013-03-02 19:21:00,28.0,17.0,30.23,West,276,0.0,0.0,62,0.00,,,0.00,,2013-03-03 01:21:00,
2013-03-02 19:32:00,28.0,17.0,30.22,West,276,0.0,1.0,62,0.00,,,0.00,,2013-03-03 01:32:00,
2013-03-02 19:41:00,28.0,17.0,30.22,West,276,0.0,1.0,62,0.00,,,0.00,,2013-03-03 01:41:00,
2013-03-02 19:52:00,28.0,17.0,30.24,West,276,1.0,1.0,63,0.00,,,0.00,,2013-03-03 01:52:00,
2013-03-02 20:01:00,28.0,17.0,30.22,West,276,1.0,1.0,63,0.00,,,0.00,,2013-03-03 02:01:00,
2013-03-02 20:11:00,28.0,17.0,30.22,West,276,0.0,0.0,63,0.00,,,0.00,,2013-03-03 02:11:00,
2013-03-02 20:21:00,28.0,17.0,30.22,West,276,0.0,0.0,63,0.00,,,0.00,,2013-03-03 02:21:00,
2013-03-02 20:31:00,27.0,16.0,30.21,West,276,0.0,1.0,63,0.00,,,0.00,,2013-03-03 02:31:00,
2013-03-02 20:41:00,27.0,16.0,30.21,West,276,0.0,1.0,63,0.00,,,0.00,,2013-03-03 02:41:00,
2013-03-02 20:52:00,27.0,17.0,30.19,West,276,0.0,0.0,65,0.00,,,0.00,,2013-03-03 02:52:00,
2013-03-02 21:01:00,27.0,17.0,30.19,West,276,1.0,1.0,65,0.00,,,0.00,,2013-03-03 03:01:00,
2013-03-02 21:11:00,27.0,17.0,30.19,West,276,1.0,1.0,65,0.00,,,0.00,,2013-03-03 03:11:00,
2013-03-02 21:21:00,27.0,17.0,30.19,SW,233,3.0,3.0,65,0.00,,,0.00,,2013-03-03 03:21:00,
2013-03-02 21:31:00,27.0,17.0,30.19,SSW,192,2.0,3.0,65,0.00,,,0.00,,2013-03-03 03:31:00,
2013-03-02 21:41:00,27.0,17.0,30.19,SSW,192,2.0,3.0,65,0.00,,,0.00,,2013-03-03 03:41:00,
2013-03-02 21:52:00,27.0,16.0,30.20,SSW,192,0.0,2.0,64,0.00,,,0.00,,2013-03-03 03:52:00,
2013-03-02 22:01:00,27.0,17.0,30.20,SSW,192,2.0,4.0,66,0.00,,,0.00,,2013-03-03 04:01:00,
2013-03-02 22:11:00,27.0,17.0,30.20,SSW,192,2.0,4.0,66,0.00,,,0.00,,2013-03-03 04:11:00,
2013-03-02 22:21:00,27.0,17.0,30.20,South,188,1.0,2.0,66,0.00,,,0.00,,2013-03-03 04:21:00,
2013-03-02 22:31:00,27.0,17.0,30.20,South,186,1.0,3.0,66,0.00,,,0.00,,2013-03-03 04:31:00,
2013-03-02 22:41:00,27.0,17.0,30.20,South,186,1.0,3.0,66,0.00,,,0.00,,2013-03-03 04:41:00,
2013-03-02 22:52:00,27.0,17.0,30.18,SSE,167,2.0,3.0,66,0.00,,,0.00,,2013-03-03 04:52:00,
2013-03-02 23:01:00,27.0,17.0,30.20,SSE,162,2.0,3.0,66,0.00,,,0.00,,2013-03-03 05:01:00,
2013-03-02 23:11:00,27.0,17.0,30.20,SSE,162,2.0,3.0,66,0.00,,,0.00,,2013-03-03 05:11:00,
2013-03-02 23:22:00,27.0,17.0,30.19,SSE,154,4.0,4.0,66,0.00,,,0.00,,2013-03-03 05:22:00,
2013-03-02 23:32:00,27.0,17.0,30.18,SSE,158,3.0,3.0,66,0.00,,,0.00,,2013-03-03 05:32:00,
2013-03-02 23:42:00,27.0,17.0,30.18,SSE,158,3.0,3.0,66,0.00,,,0.00,,2013-03-03 05:42:00,
2013-03-02 23:52:00,27.0,17.0,30.16,SSE,149,2.0,6.0,66,0.00,,,0.00,,2013-03-03 05:52:00,